AirNav   Air Wisconsin pilot careers
 
 1494 users online  

7MI Flugplatz Airport
Lexington, Michigan, USA

GOING TO LEXINGTON?


FAA INFORMATION EFFECTIVE 08 NOVEMBER 2018

Location

FAA Identifier: 7MI
Lat/Long: 43-20-30.2750N / 082-32-53.8250W
43-20.504583N / 082-32.897083W
43.3417431 / -82.5482847
(estimated)
Elevation: 700 ft. / 213 m (estimated)
Variation: 07W (1995)
From city: 5 miles N of LEXINGTON, MI
Time zone: UTC -5 (UTC -4 during Daylight Saving Time)
Zip code: 48401

Airport Operations

Airport use: Open to the public
Activation date: 07/2000
Control tower: no
ARTCC: CLEVELAND CENTER
FSS: LANSING FLIGHT SERVICE STATION
NOTAMs facility: LAN (NOTAM-D service available)
Attendance: IRREG
Wind indicator: yes
Segmented circle: no

Airport Communications

CTAF: 122.9

Airport Services

Fuel available: 100LL
EMERGENCY ONLY

Runway Information

Runway 9/27

Dimensions: 3873 x 80 ft. / 1180 x 24 m
Surface: turf, in good condition
Runway edge markings: 3 FT YELLOW CONES.
RUNWAY 9  RUNWAY 27
Latitude: 43-20.467500N43-20.541667N
Longitude: 082-33.330833W082-32.463333W
Elevation: 669.0 ft.645.0 ft.
Traffic pattern: leftleft
Runway heading: 090 magnetic, 083 true270 magnetic, 263 true
Displaced threshold: 600 ft.1276 ft.
Obstructions: 18 ft. road, 48 ft. from runway, 2:1 slope to clear
APCH RATIO 36:1 AT DSPLCD THLD.
65 ft. trees, 132 ft. from runway, 2:1 slope to clear
APCH RATIO 20:1 AT DSPLCD THLD.

Airport Ownership and Management from official FAA records

Ownership: Privately-owned
Owner: WILLIAM SCHUTZLER
7126 TOWNSEND
APPLEGATE, MI 48401
Phone 810-359-7497
Manager: WILLIAM SCHUTZLER
7126 TOWNSEND
APPLEGATE, MI 48401
Phone 810-359-7497
OTHER CONTACT: GEORGE CRACKEL 6932 TOWNSEND, APPLEGATE MI 48401; 810-359-7176

Airport Operational Statistics

Aircraft based on the field: 3
Single engine airplanes: 2
Multi engine airplanes: 1
    
Aircraft operations: 200/year *
50% transient general aviation
50% local general aviation
* for 12-month period ending 31 December 2015

Additional Remarks

DEER ON AND INVOF ARPT.
FOR RY CONDITIONS CALL 810-359-7697.

Instrument Procedures

There are no published instrument procedures at 7MI.

Some nearby airports with instrument procedures:

77G - Marlette Airport (24 nm W)
KPHN - St Clair County International Airport (26 nm S)
KBAX - Huron County Memorial Airport (32 nm NW)
D95 - Dupont-Lapeer Airport (36 nm SW)
D98 - Romeo State Airport (38 nm SW)
 
Loc | Ops | Rwys | IFR | FBO | Links
Com | Nav | Svcs | Stats | Notes


 
Area around 7MI (Flugplatz Airport)
 
Road maps at: MapQuest Bing Google
 
Aerial photo
WARNING: Photo may not be current or correct
Aerial photo of 7MI (Flugplatz Airport)
Photo by Bill Schutzler
Photo taken 09-Jul-2008

Do you have a better or more recent aerial photo of Flugplatz Airport that you would like to share? If so, please send us your photo.

 
Sectional chart

 
Airport distance calculator
Flying to Flugplatz Airport? Find the distance to fly.

From to 7MI

Sunrise and sunset
Times for 19-Nov-2018
 Local
(UTC-5)
 Zulu
(UTC)
Morning civil twilight06:5911:59
Sunrise07:3012:30
Sunset17:0222:02
Evening civil twilight17:3322:33

Current date and time
Zulu (UTC)  19-Nov-2018 18:46:52
Local (UTC-5)  19-Nov-2018 13:46:52
 
METAR
CYZR 
23nm SE 
191821Z AUTO 21007KT 9SM SCT022 03/M02 A3001 RMK SLP170
KPHN 
26nm S 
191835Z AUTO 20007KT 10SM CLR 03/M03 A3001 RMK AO2
KBAX 
33nm NW 
191836Z AUTO 22006KT 10SM SCT022 03/M02 A2998 RMK AO2 T00251022
KD95 
36nm SW 
191835Z AUTO 24007KT 10SM SCT024 03/M03 A2999 RMK AO2 T00301028
KCFS 
40nm W 
191835Z AUTO 22006KT 10SM SCT020 SCT110 02/M01 A2998 RMK AO2 T00211012
KP58 
42nm N 
191751Z AUTO VRB06KT 02/M02 A2999 RMK AO1 SLP165 T00171022 10022 21022 58019
CWGD 
44nm NE 
191800Z AUTO 20009KT 02/M02 RMK AO1 SLP166 T00221015 58018
KMTC 
45nm S 
191756Z 26008KT 10SM FEW016 SCT160 BKN200 04/M00 A3001 RMK AO2A SLP174 T00391003 10042 21045 58025 $
TAF
CYZR 
23nm SE 
191450Z 1914/2002 21010KT P6SM FEW020 BKN160 TEMPO 1914/2002 BKN020 RMK FCST BASED ON AUTO OBS. NXT FCST BY 192000Z
NOTAMs
Click for the latest NOTAMs
NOTAMs are issued by the DoD/FAA and will open in a separate window not controlled by AirNav.

 

 
 

Would you like to see your business listed on this page?

 If your business provides an interesting product or service to pilots, flight crews, aircraft, or users of the Flugplatz Airport, you should consider listing it here.  To start the listing process, click on the button below
 
Add a business
 

Other Pages about Flugplatz Airport

Page from the Michigan Airport Directory (PDF)
 
Update a link
 
Copyright © AirNav, LLC. All rights reserved. Privacy Policy  Contact